CAPE
0 0 0 0 0 0 0 0 0 0 0 0 0 0 0 0 0 0 0 0 0 0 0 0 0 0 0 22 143 220 338 315 61 17 8 1 1 0 2 0 1 1 4 2
0 0 0 0 0 0 0 0 0 0 0 0 0 0 0 0 0 0 0 0 0 0 0 0 0 0 0 53 218 268 398 225 35 24 8 1 1 3 2 1 2 2 13 2
0 0 0 0 0 0 0 0 0 0 0 0 0 0 0 0 0 0 0 0 0 0 0 0 0 0 0 66 227 276 268 147 17 18 1 0 2 4 1 5 2 8 2 1
0 0 0 0 0 0 0 0 0 0 0 0 0 0 0 0 0 0 0 0 0 0 0 0 0 0 0 34 143 141 136 50 3 1 0 0 15 1 2 1 4 1 14 1
0 0 0 0 0 0 0 0 0 0 0 0 0 0 0 0 0 0 0 0 0 0 0 0 0 0 0 7 83 96 24 1 0 0 0 5 9 0 1 6 1 4 4 7
0 0 0 0 0 0 0 0 0 0 0 0 0 0 0 0 0 0 0 0 0 0 0 0 0 0 0 0 42 84 18 1 0 0 0 0 0 8 3 2 2 5 23 28
0 0 0 0 0 0 0 0 0 0 0 0 0 0 0 0 0 0 0 0 0 0 0 0 0 0 7 19 9 31 14 6 0 0 0 0 0 3 0 1 4 8 8 17
0 0 0 0 0 0 0 0 0 0 0 0 0 0 0 0 0 0 0 0 0 0 0 0 0 0 24 6 0 9 4 2 0 0 0 0 0 0 0 0 0 6 9 9
0 0 0 0 0 0 0 0 0 0 0 0 0 0 0 0 0 0 0 0 0 0 0 0 0 0 0 6 0 2 1 1 0 0 0 0 0 0 1 0 0 0 0 2
0 0 0 0 0 0 0 0 0 0 0 0 0 0 0 0 0 0 0 0 0 0 0 0 0 0 0 0 1 1 1 1 0 0 0 0 0 0 0 1 0 1 2 1
0 0 0 0 0 0 0 0 0 0 0 0 0 0 0 0 0 0 0 0 0 0 0 0 0 0 0 0 0 1 1 0 1 0 0 0 0 0 0 0 0 1 0 0
0 0 0 0 0 0 0 0 0 0 0 0 0 0 0 0 0 0 0 0 0 0 0 0 0 0 0 0 1 2 1 1 2 0 0 2 1 0 0 0 0 0 0 1
0 0 0 0 1 0 0 0 0 0 0 0 0 0 0 0 0 0 0 0 0 0 0 0 0 0 5 1 1 0 1 0 2 0 1 1 2 1 0 0 0 0 0 1
0 0 0 0 0 0 0 0 0 0 0 0 0 0 0 0 0 0 0 0 0 0 0 0 5 0 0 4 2 0 1 0 2 0 0 2 5 1 0 0 0 0 0 0
10 0 0 0 0 0 0 0 0 0 0 0 0 0 0 0 0 0 0 0 0 0 0 0 14 0 0 0 2 2 1 0 0 0 0 0 3 2 1 0 0 0 1 1
2 0 0 0 0 0 0 0 0 0 0 0 0 0 0 0 0 0 0 3 3 0 0 0 19 4 0 1 0 2 1 0 0 0 0 0 0 0 0 0 0 0 0 0
0 0 0 0 0 0 0 0 0 0 0 0 0 0 0 0 0 0 14 12 2 6 2 1 9 0 0 1 5 0 1 0 0 1 0 0 0 0 0 0 0 1 0 0
0 0 0 0 0 0 0 0 0 0 0 0 0 0 0 0 48 120 78 25 2 0 0 0 0 0 0 0 4 3 0 0 1 2 1 0 0 0 0 0 0 0 0 0
0 0 0 0 0 0 0 0 0 0 0 0 0 0 0 0 124 9 11 0 0 0 0 0 0 0 0 0 2 0 0 2 1 1 0 0 0 0 0 0 0 0 1 3
0 0 0 0 0 0 0 0 1 0 0 0 0 7 39 24 24 33 0 0 0 0 0 0 0 0 0 1 1 1 0 4 2 2 0 0 0 0 0 0 1 6 6 9
0 0 0 0 0 0 0 0 0 0 0 0 0 12 2 6 11 1 0 0 0 0 0 0 0 2 1 2 2 3 2 0 0 0 0 0 0 0 1 4 7 8 10 12
0 0 0 0 0 0 14 7 8 7 0 3 4 6 0 15 28 0 0 0 0 1 2 1 1 3 2 2 3 3 3 6 3 3 2 2 7 9 10 9 12 12 13 14
0 0 0 0 0 0 0 12 9 0 3 1 0 0 31 9 0 0 0 0 0 2 3 1 2 3 3 2 2 4 6 3 5 7 9 11 9 8 10 11 8 8 8 10
0 0 0 0 0 0 0 0 0 0 0 0 0 0 0 0 0 0 0 0 1 2 3 2 2 2 5 1 1 3 2 2 2 7 5 4 5 6 4 5 3 1 2 4
1 2 0 0 0 0 1 0 0 0 0 0 0 0 0 0 0 0 1 2 1 1 2 2 2 3 4 3 2 2 2 1 4 2 3 2 3 4 4 3 3 3 1 1
1 2 0 3 0 0 1 2 0 0 0 1 0 0 0 0 0 0 1 1 1 1 1 1 2 2 3 3 2 1 2 2 3 3 3 4 4 4 4 3 3 2 1 1
CIN
-0 -0 -0 -0 -0 -0 -0 -0 -0 -0 -0 -0 -0 -0 -0 -0 -0 -0 -0 -0 -0 -0 -0 -0 -0 -0 -0 -626 -673 -616 -503 -413 -472 -466 -383 -0 -0 -0 -0 -0 -0 -0 -0 -10
-0 -0 -0 -0 -0 -0 -0 -0 -0 -0 -0 -0 -0 -0 -0 -0 -0 -0 -0 -0 -0 -0 -0 -0 -0 -0 -0 -590 -624 -579 -487 -470 -500 -470 -377 -0 -0 -0 -0 -0 -0 -0 -1 -4
-0 -0 -0 -0 -0 -0 -0 -0 -0 -0 -0 -0 -0 -0 -0 -0 -0 -0 -0 -0 -0 -0 -0 -0 -0 -0 -0 -621 -626 -568 -519 -515 -494 -449 -121 -1 -0 -120 -0 -1 -0 -0 -2 -32
-0 -0 -0 -0 -0 -0 -0 -0 -0 -0 -0 -0 -0 -0 -0 -0 -0 -0 -0 -0 -0 -0 -0 -0 -0 -0 -0 -600 -635 -563 -518 -541 -546 -96 -0 -0 -265 -45 -0 -0 -0 -0 -62 -9
-0 -0 -0 -0 -0 -0 -0 -0 -0 -0 -0 -0 -0 -0 -0 -0 -0 -0 -0 -0 -0 -0 -0 -0 -0 -0 -0 -637 -653 -579 -554 -276 -0 -0 -0 -305 -241 -0 -0 -41 -0 -0 -72 -4
-0 -0 -0 -0 -0 -0 -0 -0 -0 -0 -0 -0 -0 -0 -0 -0 -0 -0 -0 -0 -0 -0 -0 -0 -0 -0 -0 -673 -661 -597 -568 -268 -0 -0 -0 -0 -0 -249 -14 -1 -5 -9 -37 -56
-0 -0 -0 -0 -0 -0 -0 -0 -0 -0 -0 -0 -0 -0 -0 -0 -0 -0 -0 -0 -0 -0 -0 -0 -0 -0 -520 -570 -601 -560 -563 -251 -0 -0 -0 -0 -0 -349 -0 -4 -9 -25 -4 -21
-0 -0 -0 -0 -0 -0 -0 -0 -0 -0 -0 -0 -0 -0 -0 -0 -0 -0 -0 -0 -0 -0 -0 -0 -0 -0 -385 -291 -0 -537 -551 -250 -0 -0 -0 -0 -0 -0 -0 -0 -0 -45 -23 -6
-0 -0 -0 -0 -0 -0 -0 -0 -0 -0 -0 -0 -0 -0 -0 -0 -0 -0 -0 -0 -0 -0 -0 -0 -0 -0 -0 -470 -0 -460 -330 -0 -0 -0 -0 -0 -2 -15 -9 -8 -0 -0 -16 -16
-0 -0 -0 -0 -0 -0 -0 -0 -0 -0 -0 -0 -0 -0 -0 -0 -0 -0 -0 -0 -0 -0 -0 -0 -0 -0 -0 -0 -0 -0 -0 -0 -0 -0 -0 -0 -5 -4 -5 -12 -5 -2 -8 -9
-0 -0 -0 -0 -0 -0 -0 -0 -0 -0 -0 -0 -0 -0 -0 -0 -0 -0 -0 -0 -0 -0 -0 -0 -0 -0 -0 -0 -0 -0 -0 -0 -0 -0 -0 -4 -10 -0 -2 -1 -0 -3 -0 -0
-0 -0 -0 -0 -0 -0 -0 -0 -0 -0 -0 -0 -0 -0 -0 -0 -0 -0 -0 -0 -0 -0 -0 -0 -0 -0 -0 -0 -0 -0 -0 -0 -0 -0 -2 -4 -10 -13 -4 -1 -0 -0 -0 -0
-0 -0 -0 -0 -20 -0 -0 -0 -0 -0 -0 -0 -0 -0 -0 -0 -0 -0 -0 -0 -0 -0 -0 -0 -0 -0 -32 -0 -0 -0 -0 -0 -0 -0 -6 -4 -4 -9 -0 -0 -0 -0 -0 -0
-7 -0 -0 -0 -0 -0 -0 -0 -0 -0 -0 -0 -0 -0 -0 -0 -0 -0 -0 -0 -0 -0 -0 -0 -1 -0 -0 -5 -0 -0 -0 -0 -0 -0 -0 -4 -2 -6 -6 -1 -0 -0 -0 -1
-18 -0 -0 -0 -0 -0 -0 -0 -0 -0 -0 -0 -0 -0 -0 -0 -0 -0 -0 -0 -0 -0 -0 -0 -2 -0 -0 -0 -0 -0 -0 -0 -0 -0 -0 -2 -4 -6 -7 -4 -13 -0 -0 -0
-44 -0 -0 -0 -0 -0 -0 -0 -0 -0 -0 -0 -0 -0 -0 -0 -0 -0 -0 -5 -8 -0 -0 -0 -4 -13 -0 -0 -0 -0 -0 -0 -0 -0 -0 -0 -1 -5 -5 -4 -1 -0 -0 -0
-0 -0 -0 -0 -0 -0 -0 -0 -0 -0 -0 -0 -0 -0 -0 -0 -0 -0 -55 -25 -33 -63 -51 -5 -37 -0 -0 -0 -0 -0 -0 -0 -0 -0 -0 -1 -1 -0 -0 -0 -0 -0 -0 -0
-21 -0 -3 -0 -0 -0 -0 -0 -0 -0 -0 -0 -0 -0 -0 -0 -6 -21 -42 -47 -47 -0 -0 -0 -0 -0 -0 -0 -0 -0 -0 -0 -0 -0 -0 -0 -3 -0 -0 -0 -0 -0 -0 -0
-0 -0 -0 -0 -0 -0 -0 -0 -0 -0 -0 -0 -0 -0 -0 -0 -10 -7 -43 -0 -0 -0 -0 -0 -0 -0 -0 -0 -0 -0 -0 -0 -0 -0 -0 -0 -0 -0 -0 -0 -0 -0 -0 -0
-0 -0 -0 -0 -0 -0 -0 -0 -2 -0 -0 -0 -0 -15 -7 -25 -6 -8 -0 -0 -0 -0 -0 -0 -0 -0 -0 -0 -0 -0 -0 -1 -0 -0 -0 -0 -0 -0 -0 -0 -0 -0 -0 -0
-0 -0 -0 -0 -0 -0 -0 -0 -0 -0 -0 -0 -0 -5 -22 -25 -31 -4 -0 -0 -0 -0 -0 -0 -0 -0 -0 -0 -0 -0 -0 -0 -0 -0 -0 -0 -0 -0 -0 -0 -0 -0 -0 -0
-2 -0 -0 -0 -0 -0 -14 -18 -5 -7 -0 -0 -0 -4 -13 -20 -26 -0 -0 -0 -0 -0 -0 -0 -0 -0 -0 -0 -0 -0 -0 -0 -0 -0 -0 -0 -0 -0 -0 -0 -0 -0 -0 -0
-0 -0 -0 -0 -0 -0 -0 -14 -25 -0 -0 -2 -0 -0 -34 -35 -3 -0 -0 -0 -0 -0 -0 -0 -0 -0 -0 -0 -0 -0 -0 -0 -0 -0 -0 -0 -0 -0 -0 -0 -0 -0 -0 -0
-0 -0 -0 -0 -0 -0 -0 -0 -0 -5 -0 -0 -0 -0 -0 -0 -0 -0 -0 -0 -0 -0 -0 -0 -0 -0 -0 -0 -0 -0 -0 -0 -0 -0 -0 -0 -0 -0 -0 -0 -0 -0 -0 -0
-3 -1 -0 -0 -0 -0 -1 -12 -0 -0 -0 -0 -0 -0 -0 -0 -0 -0 -0 -0 -0 -0 -0 -0 -0 -0 -0 -0 -0 -0 -0 -0 -0 -0 -0 -0 -0 -0 -0 -0 -0 -0 -0 -0
-0 -1 -0 -3 -0 -0 -0 -0 -0 -0 -0 -0 -0 -0 -0 -0 -0 -0 -0 -0 -0 -0 -0 -0 -0 -0 -0 -0 -0 -0 -0 -0 -0 -0 -0 -0 -0 -0 -0 -0 -0 -0 -0 -0
Wind_Speed
24 31 35 31 29 31 31 31 34 30 29 37 43 50 42 40 39 40 39 39 41 44 40 36 31 23 22 16 11 10 10 10 7 6 4 4 2 2 3 3 6 3 10 30
29 37 30 27 29 32 34 38 43 38 33 30 37 48 44 40 37 34 36 38 41 42 45 41 31 16 22 15 11 11 10 10 8 5 2 6 2 1 1 2 3 6 9 17
33 29 20 24 29 31 34 36 34 37 34 35 39 48 36 31 29 31 32 36 38 39 43 41 29 16 25 16 13 13 12 10 8 4 3 5 4 5 4 4 6 10 7 13
35 34 34 33 31 26 36 31 35 37 33 36 28 49 38 30 25 29 40 36 37 38 39 39 31 21 30 20 16 16 14 11 9 4 2 2 1 2 3 5 6 13 13 13
32 29 29 32 33 24 33 26 28 32 34 35 33 34 31 32 41 33 33 34 33 35 38 38 34 34 32 17 16 16 15 13 9 5 3 1 1 2 2 4 4 7 11 15
35 27 24 26 23 22 23 25 25 28 31 40 31 31 51 34 28 37 32 33 32 35 38 36 34 33 29 16 18 16 15 13 9 7 4 4 3 1 2 4 6 5 7 10
32 34 28 26 28 23 24 25 32 34 34 39 25 30 40 39 37 31 34 33 34 34 36 37 34 33 31 22 21 19 17 13 10 7 6 5 4 2 1 5 6 6 9 11
30 29 25 25 28 27 27 27 31 38 37 36 31 35 29 29 31 32 31 34 34 36 37 37 35 32 31 28 23 19 18 13 11 7 5 4 4 4 2 3 2 6 11 15
29 29 19 16 17 20 22 25 23 31 32 37 34 35 34 31 30 32 34 35 37 38 39 37 36 35 33 30 29 24 20 16 12 8 5 3 4 4 2 2 3 8 11 15
27 34 27 23 19 19 21 19 25 27 35 40 34 34 32 32 33 34 37 37 38 40 42 38 37 36 36 32 29 25 23 22 16 8 6 3 3 3 3 4 3 6 6 10
26 27 27 24 25 26 23 24 23 23 28 35 40 33 21 28 31 36 38 37 39 41 43 38 38 38 36 31 26 24 21 18 18 13 7 4 3 4 4 3 6 4 1 3
26 27 30 27 26 22 20 23 24 30 32 29 32 37 25 30 34 38 39 37 37 38 40 36 36 35 33 28 24 23 20 19 19 16 10 5 2 4 5 4 6 7 4 5
26 26 32 27 22 20 21 19 20 22 25 32 36 39 29 40 43 41 41 38 35 36 38 32 34 32 28 29 25 22 21 19 18 14 11 7 5 3 5 5 5 6 7 6
25 28 31 34 28 25 27 25 25 24 30 33 37 44 49 43 44 44 42 39 32 32 32 32 33 30 27 29 25 24 21 19 18 14 12 9 6 2 3 5 6 6 6 7
27 34 33 33 31 31 33 33 30 32 33 37 44 43 48 45 48 43 42 33 31 31 32 32 31 30 28 25 28 24 22 20 19 16 14 11 9 5 1 2 5 7 6 6
27 33 30 39 32 32 37 38 39 40 44 42 47 52 48 49 45 42 40 33 32 33 32 29 31 30 26 26 27 26 19 21 20 17 15 12 9 7 4 2 1 4 5 5
27 30 31 39 31 32 42 41 38 37 35 38 45 43 41 44 41 36 31 28 29 28 27 26 26 27 28 28 29 27 22 19 18 19 16 14 12 9 6 4 2 4 3 4
23 24 26 35 33 41 34 28 29 36 38 35 39 40 41 42 32 25 24 26 27 28 28 28 27 28 27 29 30 27 24 17 12 16 16 14 13 12 9 6 5 5 4 3
11 12 23 27 30 37 41 38 31 29 36 33 38 35 32 29 27 28 25 25 26 28 28 27 27 28 27 28 30 31 28 16 12 14 14 14 12 11 9 7 6 5 4 5
10 13 4 19 23 27 27 23 17 22 34 29 30 17 16 21 29 26 23 24 25 26 26 27 28 27 26 27 25 22 26 16 14 15 14 11 9 8 8 8 7 7 5 4
12 7 9 11 13 28 28 30 26 24 22 18 21 18 17 19 20 19 21 22 24 25 26 25 25 25 24 24 21 17 15 16 18 16 15 14 10 7 7 7 7 7 5 3
8 19 18 15 14 23 16 17 21 21 21 17 16 18 17 17 17 18 21 25 26 26 26 26 25 24 24 23 20 17 13 16 13 10 9 9 12 12 8 8 6 5 4 3
8 10 4 11 15 19 19 19 20 21 22 20 19 19 18 18 19 20 22 24 25 25 26 26 25 24 22 21 19 16 17 16 14 9 7 6 6 4 7 6 8 7 6 4
9 3 14 15 15 20 23 20 17 14 17 22 21 21 20 20 20 20 21 23 24 25 25 26 25 24 22 21 19 17 17 14 11 9 7 4 4 2 4 9 11 9 6 8
7 8 4 12 11 14 16 19 21 21 4 17 19 20 21 22 22 20 20 21 22 24 25 25 24 22 21 20 18 17 15 13 10 9 7 5 6 5 4 4 5 5 7 6
10 12 8 6 10 11 13 13 16 16 17 18 19 20 22 21 20 20 18 20 21 23 24 24 23 21 20 19 17 16 14 12 9 7 7 6 4 4 4 4 5 6 4 4
Wind_Direction
275 270 267 269 270 276 282 283 283 286 290 288 283 278 288 290 295 296 301 305 307 305 312 316 314 310 298 294 267 250 227 235 241 279 299 322 273 238 224 240 321 238 234 234
272 269 274 275 274 275 276 279 279 285 289 287 287 281 287 290 296 301 305 309 309 311 311 315 316 303 292 287 265 251 226 232 246 273 292 340 17 73 18 4 33 99 253 205
267 273 287 273 275 273 274 275 279 282 289 289 290 284 289 297 303 306 311 312 313 316 317 316 321 307 287 285 269 251 239 235 247 269 319 351 33 21 19 42 82 109 211 202
274 274 270 276 276 276 275 277 279 282 287 284 297 283 288 298 306 312 310 313 315 319 322 319 320 307 282 285 278 265 250 245 249 232 277 151 57 22 19 111 103 127 129 201
271 276 273 269 271 269 275 283 280 283 283 287 286 287 289 295 298 310 317 319 321 323 323 323 319 289 278 285 272 262 254 250 251 230 224 173 95 4 63 106 110 142 151 152
272 279 278 277 280 270 283 281 284 285 283 279 282 284 277 293 303 309 317 318 323 323 324 325 325 288 276 283 273 259 248 248 241 238 232 174 143 69 106 142 153 167 174 172
275 270 275 276 277 278 275 277 277 278 276 278 288 284 282 291 298 312 316 320 319 325 327 328 316 293 274 274 274 265 246 238 235 234 213 180 162 141 170 162 172 190 208 232
279 278 274 272 267 273 270 267 270 274 275 281 287 282 289 302 309 315 317 318 321 319 325 327 316 295 277 271 274 265 245 232 232 226 237 193 171 161 214 198 227 208 247 249
282 277 288 294 284 277 273 271 280 278 283 282 282 285 293 303 308 313 314 318 318 318 323 323 309 288 282 271 269 261 245 238 232 238 256 198 171 159 168 296 195 194 260 262
289 275 279 284 288 296 282 284 277 280 277 278 283 287 290 302 306 311 311 314 316 318 322 315 300 290 281 269 265 257 245 245 249 243 255 227 170 144 119 335 143 177 229 259
299 287 281 280 277 276 278 279 282 285 283 279 280 284 297 309 315 310 311 314 317 317 322 307 296 289 277 264 262 252 242 240 253 259 261 242 164 134 101 3 356 340 222 194
295 284 279 278 285 284 285 283 283 277 278 282 283 280 292 305 313 314 312 313 317 319 321 303 298 288 274 261 260 249 240 242 252 255 266 256 232 136 115 77 8 3 27 94
295 283 276 275 280 287 285 290 290 289 288 281 280 281 294 298 302 308 310 313 319 316 311 300 296 289 275 261 258 247 240 243 249 249 255 263 264 155 125 98 58 18 33 73
284 280 274 271 280 286 282 285 286 285 284 285 284 288 285 296 301 301 301 310 312 313 312 302 288 288 284 263 258 248 242 245 245 244 249 260 258 235 140 101 85 65 44 57
278 272 278 277 282 284 280 282 284 284 286 285 287 289 290 293 293 294 294 306 296 302 308 304 285 287 280 277 258 254 248 245 240 241 246 256 263 264 256 107 79 81 65 41
282 273 278 275 285 283 278 280 282 285 285 286 286 286 287 283 286 281 280 291 280 291 303 292 289 281 280 275 269 257 251 244 240 241 242 249 257 255 257 273 24 55 69 26
284 277 276 275 283 286 280 281 285 289 288 288 284 288 288 280 273 274 287 286 280 282 294 285 294 288 279 280 270 265 257 248 241 240 241 243 252 251 249 263 301 318 340 24
291 289 283 280 283 278 290 298 298 290 288 290 289 289 285 271 271 279 289 289 283 288 294 290 293 292 285 285 271 260 260 244 232 236 238 239 246 249 247 255 271 291 300 327
189 302 296 289 286 287 284 282 288 292 288 297 291 292 291 270 263 267 282 288 287 298 294 288 289 294 287 290 279 262 261 237 233 231 228 231 239 243 237 241 256 271 276 289
121 160 351 304 300 296 289 296 302 300 284 305 287 314 296 273 257 267 289 292 294 304 302 291 292 289 290 291 288 282 251 246 239 231 233 228 226 216 227 237 239 263 269 279
188 5 190 202 298 289 278 255 266 263 246 278 293 300 292 277 277 286 292 292 300 308 303 297 294 291 287 289 293 305 283 249 247 246 247 247 243 230 229 237 240 239 248 268
315 345 345 349 311 240 274 263 244 248 241 261 259 306 300 295 298 299 297 294 300 302 300 303 299 297 301 303 298 298 290 265 257 254 260 251 253 254 243 234 231 230 226 242
133 105 133 34 270 260 248 239 244 260 282 297 287 287 309 308 302 303 301 299 299 297 299 304 305 304 305 303 303 297 275 270 266 272 280 263 261 301 240 234 238 231 242 236
252 255 105 149 226 241 241 239 258 231 228 288 327 324 323 311 302 308 310 301 303 301 302 307 308 307 304 307 299 287 281 274 277 282 278 285 263 42 346 263 258 259 251 272
202 244 208 158 210 248 233 259 273 302 37 342 345 344 339 326 307 303 306 309 308 309 312 316 316 310 310 314 313 304 297 294 289 286 294 281 295 334 7 337 283 278 285 282
261 270 232 197 238 259 253 295 341 348 353 355 4 350 348 339 320 314 313 321 323 327 328 327 323 317 314 315 317 316 312 310 305 299 298 295 312 338 12 44 28 7 14 23